SB KEPS @ AMSAT $ORB07249.N 2Line Orbital Elements 07249.AMSAT
HR AMSAT ORBITAL ELEMENTS FOR AMATEUR SATELLITES IN NASA FORMAT FROM WA5QGD FORT WORTH,TX September 6, 2007 Send Subscribe/unsubscribe to KEPS at http://www.amsat.org/mailman/listinfo/keps BID: ORB07249.N
DECODE 2-LINE ELSETS WITH THE FOLLOWING KEY: 1 AAAAAU 00 0 0 BBBBB.BBBBBBBB .CCCCCCCC 00000-0 00000-0 0 DDDZ 2 AAAAA EEE.EEEE FFF.FFFF GGGGGGG HHH.HHHH III.IIII JJ.JJJJJJJJKKKKKZ KEY: A-CATALOGNUM B-EPOCHTIME C-DECAY D-ELSETNUM E-INCLINATION F-RAAN G-ECCENTRICITY H-ARGPERIGEE I-MNANOM J-MNMOTION K-ORBITNUM Z-CHECKSUM
TO ALL RADIO AMATEURS BT
AO-07 1 07530U 74089B 07249.54415100 -.00000028 00000-0 10000-3 0 9709 2 07530 101.5085 285.1410 0012176 096.9235 263.3224 12.53572573501311 AO-10 1 14129U 83058B 07248.19787538 .00000108 00000-0 10000-3 0 04224 2 14129 026.1800 258.0244 6063218 053.4779 348.3926 02.05867185182213 UO-11 1 14781U 84021B 07248.60045797 .00000015 00000-0 94195-5 0 04652 2 14781 098.1881 272.8408 0008015 273.1432 086.8821 14.79576731261625 RS-15 1 23439U 94085A 07248.95839081 -.00000039 00000-0 10000-3 0 00977 2 23439 064.8135 236.2956 0157092 176.3758 183.8339 11.27552724522802 FO-29 1 24278U 96046B 07248.88570742 .00000110 00000-0 15013-3 0 05991 2 24278 098.5564 197.7216 0349760 234.1527 122.6656 13.52932032545819 SO-33 1 25509U 98061B 07249.69984987 .00000136 00000-0 16839-4 0 135 2 25509 031.4286 124.8753 0354674 059.9879 303.5427 14.28174564462911 AO-40 1 26609U 00072B 07248.75779707 -.00000223 00000-0 10000-3 0 9321 2 26609 006.4227 122.4209 7958410 000.5376 000.2315 01.25586165 31454 VO-52 1 28650U 05017B 07248.76106070 .00000301 00000-0 45069-4 0 07217 2 28650 097.8260 317.6521 0027143 353.8540 006.2350 14.81354253126343 PO-63 1 29712U 07001D 07249.79352036 .00000532 00000-0 77441-4 0 7069 2 29712 097.9151 307.7986 0013274 220.9572 139.0646 14.79814793 35403 AO-16 1 20439U 90005D 07248.87673750 -.00000027 00000-0 52952-5 0 01255 2 20439 098.2020 239.0093 0010438 311.7913 048.2374 14.31768819920094 LO-19 1 20442U 90005G 07248.55232430 -.00000007 00000-0 12348-4 0 00510 2 20442 098.1852 247.9354 0011339 310.7495 049.2706 14.32008960920199 AO-27 1 22825U 93061C 07249.40825335 -.00000102 00000-0 -23724-4 0 7726 2 22825 098.3395 215.7826 0008895 027.7402 332.4257 14.29216096727092 IO-26 1 22826U 93061D 07248.81161757 .00000014 00000-0 21846-4 0 4700 2 22826 098.3326 216.2481 0009707 025.5928 334.5738 14.29463413727096 PO-28 1 22829U 93061G 07248.44829152 .00000080 00000-0 46909-4 0 07479 2 22829 098.3215 217.0551 0010124 000.9889 359.1319 14.30165367727289 GO-32 1 25397U 98043D 07249.78749150 .00000004 00000-0 20102-4 0 3956 2 25397 098.4068 293.4009 0001493 030.8409 329.2851 14.23130419475768 MO-46 1 26548U 00057D 07248.55719485 .00000047 00000-0 23514-4 0 08902 2 26548 064.5571 294.0258 0005866 186.3888 173.7152 14.83170413375454 NO-44 1 26931U 01043C 07248.61903650 -.00000235 00000-0 -59370-4 0 06807 2 26931 067.0521 300.3004 0006978 253.4402 106.5922 14.29493586309596 SO-50 1 27607U 02058C 07249.34960752 .00000077 00000-0 34149-4 0 4012 2 27607 064.5578 198.6039 0063936 339.0118 020.8368 14.71283822253068 CO-55 1 27844U 03031E 07249.52869127 .00000035 00000-0 36668-4 0 1144 2 27844 098.7207 256.7237 0009205 213.0529 147.0074 14.20529714217020 CO-57 1 27848U 03031J 07249.55969628 .00000025 00000-0 32069-4 0 721 2 27848 098.7194 255.9205 0009030 218.2606 141.7945 14.20346557217002 AO-51 1 28375U 04025K 07249.76362212 -.00000000 00000-0 13062-4 0 9051 2 28375 098.1068 284.8544 0083700 296.1036 063.1557 14.40578559167457 CO-56 1 28941U 06005C 07248.69628987 .00020473 25298-5 20189-3 0 05559 2 28941 098.1202 318.9017 0214299 347.6111 011.9859 15.42932316085830 HO-59 1 29484U 06041F 07249.68734980 .00034352 29318-5 21283-3 0 6581 2 29484 098.2756 312.1753 0184675 332.7152 026.4469 15.57371396 53738 NO-60 1 29661U 06055C 07150.05824307 .13324117 12618-4 10400-3 0 3000 2 29661 051.6186 176.5045 0007204 190.7749 188.7342 16.52052832 25544 NO-61 1 29664U 06055F 07249.78383443 .00043087 12067-4 10164-3 0 4481 2 29664 051.6310 020.6036 0010326 309.6983 050.3114 15.97427539 41171 CP4 1 31122U 07012F 07248.64756976 .00000551 00000-0 13192-3 0 01295 2 31122 098.0798 319.3040 0086643 135.2326 225.5887 14.55030173020559 CP3 1 31128U 07012M 07249.71381923 -.00000046 00000-0 00000 0 0 1229 2 31128 098.0771 319.6249 0103681 133.5196 227.4673 14.51862570 20653 LIBERT 1 31129U 07012N 07248.74047335 .00000339 00000-0 89029-4 0 03519 2 31129 098.0764 318.7016 0103310 136.7630 224.1734 14.51954725020493 NOAA-10 1 16969U 86073A 07248.56827067 .00000018 00000-0 25501-4 0 07968 2 16969 098.7449 265.7948 0011768 296.8557 063.1408 14.27332872090695 NOAA-11 1 19531U 88089A 07248.82136493 -.00000166 00000-0 -63241-4 0 08207 2 19531 098.8101 336.9796 0011859 157.6777 202.4924 14.14849598977554 NOAA-12 1 21263U 91032A 07249.79274245 -.00000004 00000-0 00000 0 0 3225 2 21263 098.7589 246.9173 0011658 229.0032 131.0630 14.25491578847912 MET-3/5 1 21655U 91056A 07249.83967120 .00000051 00000-0 10000-3 0 3172 2 21655 082.5565 305.2632 0014040 009.8234 350.3159 13.17011949772152 MET-2/21 1 22782U 93055A 07248.78333047 -.00000040 00000-0 -49936-4 0 9259 2 22782 082.5516 337.9805 0022825 014.5534 345.6284 13.83616191707663 OKEAN-4 1 23317U 94066A 07249.78085537 .00000348 00000-0 40230-4 0 3640 2 23317 082.5377 220.4037 0021971 349.0451 011.0290 14.82531350696145 NOAA-14 1 23455U 94089A 07249.75325597 -.00000074 00000-0 00000 0 0 7993 2 23455 098.9830 316.3476 0008827 226.1316 133.9601 14.13724088654257 SICH-1 1 23657U 95046A 07248.79695005 .00000084 00000-0 77149-5 0 1637 2 23657 082.5315 002.2770 0023517 342.7497 017.2904 14.81510199647965 NOAA-15 1 25338U 98030A 07249.78168885 .00000083 00000-0 35837-4 0 1469 2 25338 098.5374 244.1868 0011023 146.4899 213.7469 14.24663401484313 RESURS 1 25394U 98043A 07249.70746985 -.00000013 00000-0 12542-4 0 7301 2 25394 098.4319 300.9808 0001434 351.9885 008.1270 14.24144381475958 FENGYUN1 1 25730U 99025A 07248.95949308 .00000164 00000-0 12212-3 0 02513 2 25730 098.6939 229.7848 0017723 262.0888 097.8268 14.07593278428838 OKEAN-0 1 25860U 99039A 07248.63566536 .00000014 00000-0 94187-5 0 1500 2 25860 097.7348 247.1410 0001826 089.4621 270.6793 14.73471257437343 NOAA-16 1 26536U 00055A 07249.79570823 -.00000001 00000-0 00000 0 0 5790 2 26536 099.1261 228.1907 0010000 308.6715 051.4043 14.12449217358628 NOAA-17 1 27453U 02032A 07249.82074596 .00000088 00000-0 38204-4 0 5815 2 27453 098.5730 317.1403 0011238 212.8579 147.2380 14.23906456270333 NOAA-18 1 28654U 05018A 07249.79646545 .00000268 00000-0 14872-3 0 1091 2 28654 098.8319 189.7238 0015188 040.1252 320.1511 14.11093425118362 HUBBLE 1 20580U 90037B 07248.76842281 .00000343 00000-0 13721-4 0 09632 2 20580 028.4678 024.6464 0003908 230.0156 130.0093 15.00275322752079 UARS 1 21701U 91063B 07249.68387090 .00003667 00000-0 65109-4 0 1611 2 21701 056.9765 320.1014 0090007 353.7436 006.2486 15.48787509878372 PO-34 1 25520U 98064B 07247.51461941 .00000451 00000-0 12509-4 0 08228 2 25520 028.4606 297.8001 0005128 043.7330 316.3671 15.17042860489580 ISS 1 25544U 98067A 07249.80230007 .00016392 00000-0 10423-3 0 9323 2 25544 051.6359 042.7170 0008539 338.5831 163.2841 15.76596834503656 OO-38 1 26063U 00004C 07249.56148146 -.00000038 00000-0 74994-5 0 45 2 26063 100.2290 267.2222 0036616 291.3870 068.3399 14.35814093398723 UWE-1 1 28892U 05043C 07248.76509555 .00000082 00000-0 26855-4 0 08421 2 28892 098.1192 143.7691 0016609 218.3684 141.6333 14.59536744098967 CO-58 1 28895U 05043F 07249.70100666 .00000043 00000-0 18746-4 0 8190 2 28895 098.1208 144.9285 0017070 215.8017 144.2044 14.59581020 98982 NCUBE2 1 28897U 05043H 07248.66996557 .00000111 00000-0 32809-4 0 03476 2 28897 098.1205 143.8688 0016200 221.1643 138.8331 14.59745281091112 NMARS 1 29662U 06055D 07126.39603970 .07031946 12599-4 11450-3 0 2632 2 29662 051.6121 302.3682 0004459 252.1654 110.7411 16.47981436 21652 FCAL 1 29667U 06055J 07249.80380785 .00015896 11216-4 59515-4 0 3051 2 29667 051.6345 025.3894 0012254 306.8651 053.1232 15.91004060 40983 FALCON 1 30776U 07006E 07249.84108579 .00000279 00000-0 23541-4 0 1348 2 30776 035.4343 077.6506 0001029 034.6139 325.4645 15.02760013 27346 MAST 1 31126U 07012K 07249.63546002 .00000344 00000-0 88342-4 0 1263 2 31126 098.0772 319.8849 0095605 133.0568 227.8691 14.53362679 20688 CAPE1 1 31130U 07012P 07249.64309022 -.00000234 00000-0 -43369-4 0 1101 2 31130 098.0735 319.5543 0103752 133.9335 227.0415 14.51881015 20431 /EX